PRIVATE WETTERSTATION BILLIGHEIM-ALLFELD                       ZURCK
Wetterdaten: Mittwoch, 01.01.2014
Datum Zeit Temp. A. Temp. A. min Temp. A. max Feuchte A. Luftdruck Regen Wind Richtung Richtung Sonnenschein ET Solar Taupunkt Windchill Windben Empfang
01.01.2014 00:00 -0,3 C -0,3 C -0,3 C 89 % 1014,6 hPa 0,0 l/m 0,0 km/h (0 Bft) NW 315 0 min 0,000 mm 0 W/m -1,9 C -0,3 C 3,2 km/h (1 Bft) 97 %
01.01.2014 00:10 -0,3 C -0,3 C -0,3 C 89 % 1014,5 hPa 0,0 l/m 0,0 km/h (0 Bft) NW 315 0 min 0,000 mm 0 W/m -1,9 C -0,3 C 3,2 km/h (1 Bft) 98 %
01.01.2014 00:20 -0,3 C -0,3 C -0,3 C 89 % 1014,4 hPa 0,0 l/m 0,0 km/h (0 Bft) NW 315 0 min 0,000 mm 0 W/m -1,9 C -0,3 C 3,2 km/h (1 Bft) 99 %
01.01.2014 00:30 -0,3 C -0,3 C -0,3 C 89 % 1014,4 hPa 0,0 l/m 0,0 km/h (0 Bft) NW 315 0 min 0,000 mm 0 W/m -1,9 C -0,3 C 1,6 km/h (1 Bft) 99 %
01.01.2014 00:40 -0,3 C -0,3 C -0,3 C 89 % 1014,5 hPa 0,0 l/m 0,0 km/h (0 Bft) NW 315 0 min 0,000 mm 0 W/m -1,9 C -0,3 C 1,6 km/h (1 Bft) 100 %
01.01.2014 00:50 -0,3 C -0,3 C -0,3 C 89 % 1014,5 hPa 0,0 l/m 0,0 km/h (0 Bft) NW 315 0 min 0,000 mm 0 W/m -1,9 C -0,3 C 1,6 km/h (1 Bft) 91 %
01.01.2014 01:00 -0,3 C -0,3 C -0,3 C 89 % 1014,5 hPa 0,0 l/m 0,0 km/h (0 Bft) NW 315 0 min 0,000 mm 0 W/m -1,9 C -0,3 C 3,2 km/h (1 Bft) 100 %
01.01.2014 01:10 -0,3 C -0,3 C -0,3 C 89 % 1014,4 hPa 0,0 l/m 0,0 km/h (0 Bft) NW 315 0 min 0,000 mm 0 W/m -1,9 C -0,3 C 3,2 km/h (1 Bft) 99 %
01.01.2014 01:20 -0,3 C -0,3 C -0,3 C 89 % 1014,7 hPa 0,0 l/m 0,0 km/h (0 Bft) NW 315 0 min 0,000 mm 0 W/m -1,9 C -0,3 C 3,2 km/h (1 Bft) 100 %
01.01.2014 01:30 -0,4 C -0,4 C -0,3 C 89 % 1014,9 hPa 0,0 l/m 0,0 km/h (0 Bft) N 0 0 min 0,000 mm 0 W/m -2,0 C -0,4 C 0,0 km/h (0 Bft) 100 %
01.01.2014 01:40 -0,4 C -0,4 C -0,4 C 89 % 1014,8 hPa 0,0 l/m 0,0 km/h (0 Bft) NW 315 0 min 0,000 mm 0 W/m -2,0 C -0,4 C 3,2 km/h (1 Bft) 99 %
01.01.2014 01:50 -0,4 C -0,4 C -0,4 C 89 % 1014,7 hPa 0,0 l/m 0,0 km/h (0 Bft) N 0 0 min 0,000 mm 0 W/m -2,0 C -0,4 C 0,0 km/h (0 Bft) 100 %
01.01.2014 02:00 -0,4 C -0,4 C -0,4 C 89 % 1014,6 hPa 0,0 l/m 0,0 km/h (0 Bft) NW 315 0 min 0,000 mm 0 W/m -2,0 C -0,4 C 1,6 km/h (1 Bft) 99 %
01.01.2014 02:10 -0,5 C -0,5 C -0,4 C 89 % 1014,8 hPa 0,0 l/m 0,0 km/h (0 Bft) NW 315 0 min 0,000 mm 0 W/m -2,1 C -0,5 C 1,6 km/h (1 Bft) 100 %
01.01.2014 02:20 -0,6 C -0,6 C -0,5 C 89 % 1015,0 hPa 0,0 l/m 1,6 km/h (1 Bft) NW 315 0 min 0,000 mm 0 W/m -2,2 C -0,6 C 4,8 km/h (1 Bft) 100 %
01.01.2014 02:30 -0,7 C -0,7 C -0,6 C 89 % 1015,1 hPa 0,0 l/m 0,0 km/h (0 Bft) N 0 0 min 0,000 mm 0 W/m -2,3 C -0,7 C 0,0 km/h (0 Bft) 100 %
01.01.2014 02:40 -0,8 C -0,8 C -0,7 C 89 % 1015,1 hPa 0,0 l/m 0,0 km/h (0 Bft) N 0 0 min 0,000 mm 0 W/m -2,4 C -0,8 C 0,0 km/h (0 Bft) 100 %
01.01.2014 02:50 -0,9 C -0,9 C -0,8 C 89 % 1015,2 hPa 0,0 l/m 0,0 km/h (0 Bft) N 0 0 min 0,000 mm 0 W/m -2,5 C -0,9 C 0,0 km/h (0 Bft) 100 %
01.01.2014 03:00 -1,0 C -1,0 C -0,9 C 89 % 1015,1 hPa 0,0 l/m 0,0 km/h (0 Bft) N 0 0 min 0,000 mm 0 W/m -2,6 C -1,0 C 0,0 km/h (0 Bft) 100 %
01.01.2014 03:10 -1,0 C -1,0 C -1,0 C 89 % 1015,2 hPa 0,0 l/m 0,0 km/h (0 Bft) N 0 0 min 0,000 mm 0 W/m -2,6 C -1,0 C 0,0 km/h (0 Bft) 100 %
01.01.2014 03:20 -1,0 C -1,0 C -1,0 C 89 % 1015,2 hPa 0,0 l/m 0,0 km/h (0 Bft) NW 315 0 min 0,000 mm 0 W/m -2,6 C -1,0 C 3,2 km/h (1 Bft) 100 %
01.01.2014 03:30 -1,0 C -1,0 C -1,0 C 89 % 1015,1 hPa 0,0 l/m 0,0 km/h (0 Bft) N 0 0 min 0,000 mm 0 W/m -2,6 C -1,0 C 0,0 km/h (0 Bft) 100 %
01.01.2014 03:40 -1,0 C -1,0 C -1,0 C 89 % 1015,0 hPa 0,0 l/m 0,0 km/h (0 Bft) N 0 0 min 0,000 mm 0 W/m -2,6 C -1,0 C 0,0 km/h (0 Bft) 100 %
01.01.2014 03:50 -0,9 C -1,0 C -0,9 C 89 % 1015,1 hPa 0,0 l/m 0,0 km/h (0 Bft) N 0 0 min 0,000 mm 0 W/m -2,5 C -0,9 C 0,0 km/h (0 Bft) 100 %
01.01.2014 04:00 -0,9 C -0,9 C -0,9 C 89 % 1014,7 hPa 0,0 l/m 0,0 km/h (0 Bft) NW 315 0 min 0,000 mm 0 W/m -2,5 C -0,9 C 1,6 km/h (1 Bft) 99 %
01.01.2014 04:10 -0,8 C -0,9 C -0,8 C 89 % 1015,0 hPa 0,0 l/m 0,0 km/h (0 Bft) NW 315 0 min 0,000 mm 0 W/m -2,4 C -0,8 C 3,2 km/h (1 Bft) 100 %
01.01.2014 04:20 -0,9 C -0,9 C -0,8 C 89 % 1015,0 hPa 0,0 l/m 0,0 km/h (0 Bft) NW 315 0 min 0,000 mm 0 W/m -2,5 C -0,9 C 3,2 km/h (1 Bft) 100 %
01.01.2014 04:30 -1,0 C -1,0 C -0,9 C 89 % 1014,9 hPa 0,0 l/m 0,0 km/h (0 Bft) NW 315 0 min 0,000 mm 0 W/m -2,6 C -1,0 C 3,2 km/h (1 Bft) 100 %
01.01.2014 04:40 -1,0 C -1,1 C -1,0 C 89 % 1015,0 hPa 0,0 l/m 0,0 km/h (0 Bft) NW 315 0 min 0,000 mm 0 W/m -2,6 C -1,0 C 3,2 km/h (1 Bft) 100 %
01.01.2014 04:50 -0,9 C -1,0 C -0,9 C 89 % 1015,0 hPa 0,0 l/m 0,0 km/h (0 Bft) N 0 0 min 0,000 mm 0 W/m -2,5 C -0,9 C 0,0 km/h (0 Bft) 100 %
01.01.2014 05:00 -0,8 C -0,9 C -0,8 C 89 % 1015,2 hPa 0,0 l/m 0,0 km/h (0 Bft) N 0 0 min 0,000 mm 0 W/m -2,4 C -0,8 C 0,0 km/h (0 Bft) 100 %
01.01.2014 05:10 -0,7 C -0,8 C -0,7 C 89 % 1015,3 hPa 0,0 l/m 0,0 km/h (0 Bft) NW 315 0 min 0,000 mm 0 W/m -2,3 C -0,7 C 1,6 km/h (1 Bft) 100 %
01.01.2014 05:20 -0,6 C -0,7 C -0,6 C 89 % 1015,2 hPa 0,2 l/m 0,0 km/h (0 Bft) N 0 0 min 0,000 mm 0 W/m -2,2 C -0,6 C 0,0 km/h (0 Bft) 100 %
01.01.2014 05:30 -0,5 C -0,6 C -0,5 C 89 % 1015,1 hPa 0,0 l/m 0,0 km/h (0 Bft) N 0 0 min 0,000 mm 0 W/m -2,1 C -0,5 C 0,0 km/h (0 Bft) 99 %
01.01.2014 05:40 -0,4 C -0,5 C -0,4 C 88 % 1015,1 hPa 0,0 l/m 0,0 km/h (0 Bft) N 0 0 min 0,000 mm 0 W/m -2,1 C -0,4 C 0,0 km/h (0 Bft) 100 %
01.01.2014 05:50 -0,3 C -0,4 C -0,3 C 89 % 1015,2 hPa 0,0 l/m 0,0 km/h (0 Bft) N 0 0 min 0,000 mm 0 W/m -1,9 C -0,3 C 0,0 km/h (0 Bft) 100 %
01.01.2014 06:00 -0,2 C -0,3 C -0,2 C 89 % 1015,1 hPa 0,0 l/m 0,0 km/h (0 Bft) NW 315 0 min 0,000 mm 0 W/m -1,8 C -0,2 C 1,6 km/h (1 Bft) 100 %
01.01.2014 06:10 -0,2 C -0,2 C -0,2 C 88 % 1015,2 hPa 0,0 l/m 0,0 km/h (0 Bft) NW 315 0 min 0,000 mm 0 W/m -1,9 C -0,2 C 1,6 km/h (1 Bft) 92 %
01.01.2014 06:20 -0,2 C -0,2 C -0,2 C 88 % 1015,1 hPa 0,0 l/m 0,0 km/h (0 Bft) NW 315 0 min 0,000 mm 0 W/m -1,9 C -0,2 C 3,2 km/h (1 Bft) 99 %
01.01.2014 06:30 -0,2 C -0,2 C -0,1 C 88 % 1015,2 hPa 0,0 l/m 0,0 km/h (0 Bft) N 0 0 min 0,000 mm 0 W/m -1,9 C -0,2 C 0,0 km/h (0 Bft) 100 %
01.01.2014 06:40 -0,2 C -0,2 C -0,2 C 88 % 1015,2 hPa 0,0 l/m 0,0 km/h (0 Bft) NW 315 0 min 0,000 mm 0 W/m -1,9 C -0,2 C 1,6 km/h (1 Bft) 99 %
01.01.2014 06:50 -0,2 C -0,2 C -0,2 C 88 % 1015,3 hPa 0,0 l/m 0,0 km/h (0 Bft) NW 315 0 min 0,000 mm 0 W/m -1,9 C -0,2 C 1,6 km/h (1 Bft) 100 %
01.01.2014 07:00 -0,1 C -0,2 C -0,1 C 88 % 1015,1 hPa 0,0 l/m 0,0 km/h (0 Bft) NW 315 0 min 0,000 mm 0 W/m -1,8 C -0,1 C 4,8 km/h (1 Bft) 100 %
01.01.2014 07:10 -0,1 C -0,1 C -0,1 C 89 % 1015,3 hPa 0,0 l/m 0,0 km/h (0 Bft) N 0 0 min 0,000 mm 0 W/m -1,7 C -0,1 C 0,0 km/h (0 Bft) 100 %
01.01.2014 07:20 -0,1 C -0,1 C -0,1 C 89 % 1015,2 hPa 0,2 l/m 0,0 km/h (0 Bft) NW 315 0 min 0,000 mm 0 W/m -1,7 C -0,1 C 1,6 km/h (1 Bft) 100 %
01.01.2014 07:30 0,0 C -0,1 C 0,0 C 89 % 1015,2 hPa 0,0 l/m 0,0 km/h (0 Bft) NW 315 0 min 0,000 mm 0 W/m -1,6 C 0,0 C 3,2 km/h (1 Bft) 100 %
01.01.2014 07:40 -0,1 C -0,1 C 0,0 C 89 % 1015,4 hPa 0,0 l/m 0,0 km/h (0 Bft) NW 315 0 min 0,000 mm 0 W/m -1,7 C -0,1 C 4,8 km/h (1 Bft) 100 %
01.01.2014 07:50 0,0 C -0,1 C 0,0 C 89 % 1015,5 hPa 0,0 l/m 0,0 km/h (0 Bft) NW 315 0 min 0,000 mm 0 W/m -1,6 C 0,0 C 3,2 km/h (1 Bft) 100 %
01.01.2014 08:00 0,0 C -0,1 C 0,0 C 88 % 1015,5 hPa 0,0 l/m 0,0 km/h (0 Bft) N 360 0 min 0,000 mm 0 W/m -1,7 C 0,0 C 3,2 km/h (1 Bft) 100 %
01.01.2014 08:10 0,1 C 0,0 C 0,1 C 88 % 1015,6 hPa 0,0 l/m 0,0 km/h (0 Bft) N 360 0 min 0,000 mm 0 W/m -1,6 C 0,1 C 1,6 km/h (1 Bft) 100 %
01.01.2014 08:20 0,2 C 0,1 C 0,2 C 88 % 1015,7 hPa 0,0 l/m 0,0 km/h (0 Bft) N 0 0 min 0,000 mm 0 W/m -1,5 C 0,2 C 0,0 km/h (0 Bft) 100 %
01.01.2014 08:30 0,2 C 0,1 C 0,2 C 88 % 1015,8 hPa 0,0 l/m 0,0 km/h (0 Bft) N 360 0 min 0,000 mm 0 W/m -1,5 C 0,2 C 1,6 km/h (1 Bft) 100 %
01.01.2014 08:40 0,2 C 0,2 C 0,2 C 88 % 1016,0 hPa 0,0 l/m 0,0 km/h (0 Bft) N 360 0 min 0,000 mm 0 W/m -1,5 C 0,2 C 1,6 km/h (1 Bft) 100 %
01.01.2014 08:50 0,2 C 0,2 C 0,2 C 88 % 1016,1 hPa 0,0 l/m 0,0 km/h (0 Bft) N 360 0 min 0,000 mm 5 W/m -1,5 C 0,2 C 3,2 km/h (1 Bft) 100 %
01.01.2014 09:00 0,2 C 0,2 C 0,2 C 88 % 1016,1 hPa 0,2 l/m 0,0 km/h (0 Bft) N 360 0 min 0,000 mm 5 W/m -1,5 C 0,2 C 1,6 km/h (1 Bft) 100 %
01.01.2014 09:10 0,2 C 0,2 C 0,2 C 88 % 1016,1 hPa 0,0 l/m 0,0 km/h (0 Bft) N 0 0 min 0,000 mm 18 W/m -1,5 C 0,2 C 0,0 km/h (0 Bft) 90 %
01.01.2014 09:20 0,3 C 0,2 C 0,3 C 88 % 1016,2 hPa 0,0 l/m 0,0 km/h (0 Bft) N 360 0 min 0,000 mm 33 W/m -1,4 C 0,3 C 3,2 km/h (1 Bft) 100 %
01.01.2014 09:30 0,3 C 0,3 C 0,3 C 88 % 1016,2 hPa 0,0 l/m 0,0 km/h (0 Bft) N 360 0 min 0,000 mm 40 W/m -1,4 C 0,3 C 1,6 km/h (1 Bft) 100 %
01.01.2014 09:40 0,4 C 0,3 C 0,4 C 88 % 1016,2 hPa 0,0 l/m 0,0 km/h (0 Bft) N 0 0 min 0,000 mm 56 W/m -1,3 C 0,4 C 0,0 km/h (0 Bft) 100 %
01.01.2014 09:50 0,5 C 0,4 C 0,5 C 88 % 1016,1 hPa 0,0 l/m 0,0 km/h (0 Bft) W 270 0 min 0,000 mm 40 W/m -1,3 C 0,5 C 1,6 km/h (1 Bft) 100 %
01.01.2014 10:00 0,7 C 0,5 C 0,7 C 88 % 1016,0 hPa 0,0 l/m 0,0 km/h (0 Bft) N 0 0 min 0,025 mm 121 W/m -1,1 C 0,7 C 0,0 km/h (0 Bft) 100 %
01.01.2014 10:10 1,3 C 0,7 C 1,3 C 88 % 1016,0 hPa 0,0 l/m 0,0 km/h (0 Bft) N 0 10 min 0,000 mm 181 W/m -0,5 C 1,3 C 0,0 km/h (0 Bft) 99 %
01.01.2014 10:20 1,4 C 1,3 C 1,4 C 88 % 1016,1 hPa 0,0 l/m 0,0 km/h (0 Bft) N 0 0 min 0,000 mm 49 W/m -0,4 C 1,4 C 0,0 km/h (0 Bft) 100 %
01.01.2014 10:30 1,4 C 1,4 C 1,4 C 88 % 1016,0 hPa 0,0 l/m 0,0 km/h (0 Bft) N 0 0 min 0,000 mm 65 W/m -0,4 C 1,4 C 0,0 km/h (0 Bft) 100 %
01.01.2014 10:40 1,4 C 1,4 C 1,4 C 88 % 1015,9 hPa 0,0 l/m 0,0 km/h (0 Bft) N 0 0 min 0,000 mm 76 W/m -0,4 C 1,4 C 0,0 km/h (0 Bft) 100 %
01.01.2014 10:50 1,6 C 1,4 C 1,6 C 88 % 1015,8 hPa 0,0 l/m 0,0 km/h (0 Bft) W 270 0 min 0,000 mm 86 W/m -0,2 C 1,6 C 3,2 km/h (1 Bft) 100 %
01.01.2014 11:00 1,6 C 1,6 C 1,7 C 88 % 1015,7 hPa 0,0 l/m 0,0 km/h (0 Bft) W 270 0 min 0,025 mm 95 W/m -0,2 C 1,6 C 1,6 km/h (1 Bft) 99 %
01.01.2014 11:10 1,7 C 1,6 C 1,7 C 88 % 1015,7 hPa 0,0 l/m 0,0 km/h (0 Bft) W 270 0 min 0,000 mm 86 W/m -0,1 C 1,7 C 1,6 km/h (1 Bft) 100 %
01.01.2014 11:20 1,8 C 1,7 C 1,8 C 88 % 1015,6 hPa 0,0 l/m 0,0 km/h (0 Bft) W 270 0 min 0,000 mm 88 W/m 0,0 C 1,8 C 3,2 km/h (1 Bft) 100 %
01.01.2014 11:30 2,2 C 1,8 C 2,2 C 88 % 1015,4 hPa 0,0 l/m 0,0 km/h (0 Bft) W 270 10 min 0,000 mm 350 W/m 0,4 C 2,2 C 3,2 km/h (1 Bft) 100 %
01.01.2014 11:40 2,8 C 2,2 C 2,8 C 88 % 1015,3 hPa 0,0 l/m 1,6 km/h (1 Bft) NW 315 10 min 0,000 mm 267 W/m 1,0 C 2,8 C 4,8 km/h (1 Bft) 100 %
01.01.2014 11:50 3,3 C 2,8 C 3,3 C 88 % 1015,1 hPa 0,0 l/m 0,0 km/h (0 Bft) NW 315 10 min 0,000 mm 237 W/m 1,5 C 3,3 C 4,8 km/h (1 Bft) 100 %
01.01.2014 12:00 4,1 C 3,3 C 4,1 C 88 % 1014,9 hPa 0,0 l/m 0,0 km/h (0 Bft) NW 315 10 min 0,051 mm 253 W/m 2,3 C 4,1 C 1,6 km/h (1 Bft) 100 %
01.01.2014 12:10 5,0 C 4,2 C 5,0 C 89 % 1014,6 hPa 0,0 l/m 0,0 km/h (0 Bft) NW 315 10 min 0,000 mm 248 W/m 3,3 C 5,0 C 1,6 km/h (1 Bft) 100 %
01.01.2014 12:20 5,6 C 5,0 C 5,6 C 88 % 1014,6 hPa 0,0 l/m 0,0 km/h (0 Bft) NW 315 10 min 0,000 mm 253 W/m 3,8 C 5,6 C 3,2 km/h (1 Bft) 100 %
01.01.2014 12:30 6,1 C 5,6 C 6,1 C 87 % 1014,4 hPa 0,0 l/m 0,0 km/h (0 Bft) S 180 10 min 0,000 mm 290 W/m 4,1 C 6,1 C 4,8 km/h (1 Bft) 100 %
01.01.2014 12:40 6,4 C 6,1 C 6,4 C 85 % 1014,2 hPa 0,0 l/m 0,0 km/h (0 Bft) SW 225 10 min 0,000 mm 218 W/m 4,1 C 6,4 C 4,8 km/h (1 Bft) 100 %
01.01.2014 12:50 6,9 C 6,4 C 6,9 C 85 % 1014,2 hPa 0,0 l/m 1,6 km/h (1 Bft) S-SW 202 10 min 0,000 mm 264 W/m 4,6 C 6,9 C 4,8 km/h (1 Bft) 100 %
01.01.2014 13:00 7,2 C 6,9 C 7,2 C 83 % 1014,1 hPa 0,0 l/m 3,2 km/h (1 Bft) S-SW 202 10 min 0,076 mm 274 W/m 4,5 C 7,2 C 6,4 km/h (2 Bft) 100 %
01.01.2014 13:10 7,3 C 7,2 C 7,3 C 83 % 1014,0 hPa 0,0 l/m 3,2 km/h (1 Bft) S-SW 202 10 min 0,000 mm 244 W/m 4,6 C 7,3 C 8,0 km/h (2 Bft) 100 %
01.01.2014 13:20 7,4 C 7,3 C 7,4 C 82 % 1013,9 hPa 0,0 l/m 3,2 km/h (1 Bft) S 180 10 min 0,000 mm 257 W/m 4,5 C 7,4 C 8,0 km/h (2 Bft) 100 %
01.01.2014 13:30 7,3 C 7,3 C 7,4 C 81 % 1013,7 hPa 0,0 l/m 3,2 km/h (1 Bft) SO 135 10 min 0,000 mm 251 W/m 4,3 C 7,3 C 8,0 km/h (2 Bft) 100 %
01.01.2014 13:40 7,3 C 7,2 C 7,3 C 81 % 1013,5 hPa 0,0 l/m 3,2 km/h (1 Bft) SO 135 10 min 0,000 mm 153 W/m 4,3 C 7,3 C 11,3 km/h (2 Bft) 100 %
01.01.2014 13:50 7,3 C 7,2 C 7,3 C 81 % 1013,5 hPa 0,0 l/m 3,2 km/h (1 Bft) S-SO 157 10 min 0,000 mm 241 W/m 4,3 C 7,3 C 8,0 km/h (2 Bft) 100 %
01.01.2014 14:00 7,6 C 7,3 C 7,6 C 80 % 1013,4 hPa 0,0 l/m 3,2 km/h (1 Bft) S 180 10 min 0,076 mm 230 W/m 4,4 C 7,6 C 8,0 km/h (2 Bft) 100 %
01.01.2014 14:10 7,8 C 7,6 C 7,8 C 79 % 1013,3 hPa 0,0 l/m 4,8 km/h (1 Bft) S-SO 157 10 min 0,000 mm 213 W/m 4,4 C 7,8 C 9,7 km/h (2 Bft) 100 %
01.01.2014 14:20 7,9 C 7,8 C 7,9 C 80 % 1013,2 hPa 0,0 l/m 3,2 km/h (1 Bft) S-SO 157 10 min 0,000 mm 176 W/m 4,7 C 7,9 C 11,3 km/h (2 Bft) 100 %
01.01.2014 14:30 8,0 C 7,9 C 8,0 C 78 % 1013,1 hPa 0,0 l/m 3,2 km/h (1 Bft) S-SO 157 10 min 0,000 mm 167 W/m 4,4 C 8,0 C 11,3 km/h (2 Bft) 100 %
01.01.2014 14:40 8,2 C 7,9 C 8,2 C 79 % 1013,0 hPa 0,0 l/m 1,6 km/h (1 Bft) S 180 0 min 0,000 mm 151 W/m 4,8 C 8,2 C 8,0 km/h (2 Bft) 100 %
01.01.2014 14:50 8,3 C 8,2 C 8,3 C 77 % 1013,0 hPa 0,0 l/m 3,2 km/h (1 Bft) SO 135 10 min 0,000 mm 155 W/m 4,5 C 8,3 C 9,7 km/h (2 Bft) 100 %
01.01.2014 15:00 8,4 C 8,3 C 8,4 C 77 % 1013,0 hPa 0,0 l/m 1,6 km/h (1 Bft) SO 135 0 min 0,076 mm 137 W/m 4,6 C 8,4 C 11,3 km/h (2 Bft) 100 %
01.01.2014 15:10 8,2 C 8,2 C 8,4 C 78 % 1013,0 hPa 0,0 l/m 1,6 km/h (1 Bft) O-SO 112 0 min 0,000 mm 86 W/m 4,6 C 8,2 C 6,4 km/h (2 Bft) 100 %
01.01.2014 15:20 7,9 C 7,9 C 8,2 C 78 % 1012,8 hPa 0,0 l/m 0,0 km/h (0 Bft) S-SO 157 0 min 0,000 mm 46 W/m 4,3 C 7,9 C 1,6 km/h (1 Bft) 100 %
01.01.2014 15:30 7,8 C 7,8 C 7,9 C 78 % 1012,8 hPa 0,0 l/m 1,6 km/h (1 Bft) S-SO 157 0 min 0,000 mm 40 W/m 4,2 C 7,8 C 8,0 km/h (2 Bft) 100 %
01.01.2014 15:40 7,8 C 7,7 C 7,8 C 79 % 1012,8 hPa 0,0 l/m 1,6 km/h (1 Bft) O-SO 112 0 min 0,000 mm 44 W/m 4,4 C 7,8 C 6,4 km/h (2 Bft) 100 %
01.01.2014 15:50 7,7 C 7,7 C 7,8 C 78 % 1012,7 hPa 0,0 l/m 1,6 km/h (1 Bft) SO 135 0 min 0,000 mm 37 W/m 4,1 C 7,7 C 6,4 km/h (2 Bft) 100 %
01.01.2014 16:00 7,6 C 7,6 C 7,7 C 78 % 1012,5 hPa 0,0 l/m 1,6 km/h (1 Bft) O-SO 112 0 min 0,025 mm 25 W/m 4,0 C 7,6 C 6,4 km/h (2 Bft) 100 %
01.01.2014 16:10 7,5 C 7,5 C 7,6 C 78 % 1012,5 hPa 0,0 l/m 1,6 km/h (1 Bft) SO 135 0 min 0,000 mm 16 W/m 3,9 C 7,5 C 4,8 km/h (1 Bft) 100 %
01.01.2014 16:20 7,4 C 7,4 C 7,5 C 78 % 1012,5 hPa 0,0 l/m 1,6 km/h (1 Bft) SO 135 0 min 0,000 mm 12 W/m 3,8 C 7,4 C 9,7 km/h (2 Bft) 100 %
01.01.2014 16:30 7,3 C 7,3 C 7,4 C 78 % 1012,4 hPa 0,0 l/m 0,0 km/h (0 Bft) SO 135 0 min 0,000 mm 5 W/m 3,7 C 7,3 C 4,8 km/h (1 Bft) 100 %
01.01.2014 16:40 7,3 C 7,3 C 7,3 C 78 % 1012,3 hPa 0,0 l/m 0,0 km/h (0 Bft) O-SO 112 0 min 0,000 mm 0 W/m 3,7 C 7,3 C 3,2 km/h (1 Bft) 100 %
01.01.2014 16:50 7,3 C 7,3 C 7,3 C 77 % 1012,2 hPa 0,0 l/m 1,6 km/h (1 Bft) SO 135 0 min 0,000 mm 0 W/m 3,5 C 7,3 C 8,0 km/h (2 Bft) 100 %
01.01.2014 17:00 7,3 C 7,3 C 7,3 C 77 % 1012,1 hPa 0,0 l/m 1,9 km/h (1 Bft) O-SO 104 0 min 0,002 mm 0 W/m 3,5 C 7,3 C 8,0 km/h (2 Bft) 100 %
01.01.2014 17:17 7,3 C 7,3 C 7,3 C 77 % 1012,1 hPa 0,0 l/m 2,0 km/h (1 Bft) O-SO 107 0 min 0,000 mm 0 W/m 3,5 C 7,3 C 8,0 km/h (2 Bft) 100 %
01.01.2014 17:20 7,2 C 7,2 C 7,3 C 77 % 1012,1 hPa 0,0 l/m 0,6 km/h (0 Bft) O-SO 112 0 min 0,000 mm 0 W/m 3,4 C 7,2 C 3,2 km/h (1 Bft) 100 %
01.01.2014 17:30 7,2 C 7,2 C 7,2 C 77 % 1011,9 hPa 0,0 l/m 1,7 km/h (1 Bft) O-SO 111 0 min 0,000 mm 0 W/m 3,4 C 7,2 C 8,0 km/h (2 Bft) 100 %
01.01.2014 17:40 7,0 C 7,0 C 7,2 C 77 % 1011,9 hPa 0,0 l/m 0,9 km/h (0 Bft) O-SO 117 0 min 0,000 mm 0 W/m 3,2 C 7,0 C 6,4 km/h (2 Bft) 100 %
01.01.2014 17:50 6,9 C 6,9 C 7,0 C 78 % 1011,7 hPa 0,0 l/m 1,7 km/h (1 Bft) S-SO 155 0 min 0,000 mm 0 W/m 3,3 C 6,9 C 9,7 km/h (2 Bft) 100 %
01.01.2014 18:00 6,8 C 6,8 C 6,9 C 78 % 1011,5 hPa 0,0 l/m 1,3 km/h (1 Bft) S 180 0 min 0,025 mm 0 W/m 3,2 C 6,8 C 8,0 km/h (2 Bft) 100 %
01.01.2014 18:10 6,7 C 6,7 C 6,8 C 79 % 1011,5 hPa 0,0 l/m 0,7 km/h (0 Bft) SO 138 0 min 0,000 mm 0 W/m 3,3 C 6,7 C 4,8 km/h (1 Bft) 100 %
01.01.2014 18:20 6,1 C 6,1 C 6,7 C 80 % 1011,4 hPa 0,0 l/m 0,6 km/h (0 Bft) O 96 0 min 0,000 mm 0 W/m 2,9 C 6,1 C 4,8 km/h (1 Bft) 100 %
01.01.2014 18:30 5,7 C 5,7 C 6,1 C 82 % 1011,4 hPa 0,0 l/m 1,4 km/h (1 Bft) S 183 0 min 0,000 mm 0 W/m 2,9 C 5,7 C 8,0 km/h (2 Bft) 100 %
01.01.2014 18:40 5,7 C 5,7 C 5,7 C 82 % 1011,4 hPa 0,0 l/m 0,8 km/h (0 Bft) S-SO 160 0 min 0,000 mm 0 W/m 2,9 C 5,7 C 8,0 km/h (2 Bft) 100 %
01.01.2014 18:50 5,6 C 5,6 C 5,7 C 82 % 1011,4 hPa 0,0 l/m 0,5 km/h (0 Bft) O-SO 117 0 min 0,000 mm 0 W/m 2,8 C 5,6 C 4,8 km/h (1 Bft) 100 %
01.01.2014 19:00 5,8 C 5,6 C 5,8 C 82 % 1011,2 hPa 0,0 l/m 2,5 km/h (1 Bft) O-SO 122 0 min 0,025 mm 0 W/m 3,0 C 5,8 C 8,0 km/h (2 Bft) 100 %
01.01.2014 19:10 5,8 C 5,8 C 5,8 C 81 % 1011,1 hPa 0,0 l/m 1,4 km/h (1 Bft) O-SO 112 0 min 0,000 mm 0 W/m 2,8 C 5,8 C 8,0 km/h (2 Bft) 100 %
01.01.2014 19:20 5,9 C 5,8 C 5,9 C 81 % 1010,8 hPa 0,0 l/m 2,7 km/h (1 Bft) SO 130 0 min 0,000 mm 0 W/m 2,9 C 5,9 C 11,3 km/h (2 Bft) 100 %
01.01.2014 19:30 5,9 C 5,9 C 5,9 C 80 % 1010,6 hPa 0,0 l/m 2,3 km/h (1 Bft) SO 131 0 min 0,000 mm 0 W/m 2,7 C 5,9 C 9,7 km/h (2 Bft) 100 %
01.01.2014 19:40 5,7 C 5,7 C 5,9 C 81 % 1010,5 hPa 0,0 l/m 1,1 km/h (1 Bft) SO 132 0 min 0,000 mm 0 W/m 2,7 C 5,7 C 6,4 km/h (2 Bft) 100 %
01.01.2014 19:50 5,6 C 5,6 C 5,8 C 81 % 1010,3 hPa 0,0 l/m 1,5 km/h (1 Bft) SO 139 0 min 0,000 mm 0 W/m 2,6 C 5,6 C 6,4 km/h (2 Bft) 100 %
01.01.2014 20:00 5,4 C 5,4 C 5,6 C 82 % 1010,2 hPa 0,0 l/m 2,4 km/h (1 Bft) SO 140 0 min 0,026 mm 0 W/m 2,6 C 5,4 C 11,3 km/h (2 Bft) 100 %
01.01.2014 20:10 5,3 C 5,3 C 5,4 C 82 % 1010,2 hPa 0,0 l/m 2,4 km/h (1 Bft) S-SO 165 0 min 0,000 mm 0 W/m 2,5 C 5,3 C 11,3 km/h (2 Bft) 100 %
01.01.2014 20:20 5,0 C 5,0 C 5,3 C 83 % 1010,0 hPa 0,0 l/m 0,7 km/h (0 Bft) O-SO 115 0 min 0,000 mm 0 W/m 2,4 C 5,0 C 6,4 km/h (2 Bft) 100 %
01.01.2014 20:30 4,8 C 4,8 C 5,0 C 83 % 1009,9 hPa 0,0 l/m 1,9 km/h (1 Bft) O-SO 109 0 min 0,000 mm 0 W/m 2,2 C 4,8 C 8,0 km/h (2 Bft) 100 %
01.01.2014 20:40 4,9 C 4,8 C 4,9 C 83 % 1009,8 hPa 0,0 l/m 3,0 km/h (1 Bft) O-SO 105 0 min 0,000 mm 0 W/m 2,3 C 4,9 C 9,7 km/h (2 Bft) 100 %
01.01.2014 20:50 4,9 C 4,9 C 4,9 C 82 % 1009,8 hPa 0,0 l/m 0,2 km/h (0 Bft) O-SO 112 0 min 0,000 mm 0 W/m 2,1 C 4,9 C 4,8 km/h (1 Bft) 99 %
01.01.2014 21:00 4,8 C 4,8 C 4,9 C 83 % 1009,8 hPa 0,0 l/m 0,3 km/h (0 Bft) O-NO 78 0 min 0,000 mm 0 W/m 2,2 C 4,8 C 4,8 km/h (1 Bft) 100 %
01.01.2014 21:10 4,7 C 4,7 C 4,8 C 83 % 1009,6 hPa 0,0 l/m 0,9 km/h (0 Bft) SO 136 0 min 0,000 mm 0 W/m 2,1 C 4,7 C 4,8 km/h (1 Bft) 100 %
01.01.2014 21:20 4,8 C 4,7 C 4,8 C 83 % 1009,4 hPa 0,0 l/m 0,4 km/h (0 Bft) O-NO 74 0 min 0,000 mm 0 W/m 2,2 C 4,8 C 6,4 km/h (2 Bft) 100 %
01.01.2014 21:30 4,9 C 4,8 C 4,9 C 82 % 1009,3 hPa 0,0 l/m 0,0 km/h (0 Bft) O-SO 112 0 min 0,000 mm 0 W/m 2,1 C 4,9 C 4,8 km/h (1 Bft) 100 %
01.01.2014 21:40 4,7 C 4,7 C 4,9 C 83 % 1009,2 hPa 0,0 l/m 0,0 km/h (0 Bft) S-SW 202 0 min 0,000 mm 0 W/m 2,1 C 4,7 C 3,2 km/h (1 Bft) 100 %
01.01.2014 21:50 4,6 C 4,6 C 4,7 C 83 % 1009,1 hPa 0,0 l/m 1,6 km/h (1 Bft) S-SO 157 0 min 0,000 mm 0 W/m 2,0 C 4,6 C 8,0 km/h (2 Bft) 99 %
01.01.2014 22:00 4,9 C 4,6 C 4,9 C 82 % 1008,9 hPa 0,0 l/m 1,6 km/h (1 Bft) SO 135 0 min 0,000 mm 0 W/m 2,1 C 4,9 C 8,0 km/h (2 Bft) 100 %
01.01.2014 22:10 5,1 C 4,9 C 5,1 C 81 % 1008,8 hPa 0,0 l/m 3,2 km/h (1 Bft) S-SO 157 0 min 0,000 mm 0 W/m 2,1 C 5,1 C 16,1 km/h (3 Bft) 100 %
01.01.2014 22:20 4,9 C 4,9 C 5,1 C 81 % 1008,9 hPa 0,0 l/m 1,6 km/h (1 Bft) S-SO 157 0 min 0,000 mm 0 W/m 1,9 C 4,9 C 6,4 km/h (2 Bft) 100 %
01.01.2014 22:30 4,4 C 4,4 C 4,9 C 83 % 1009,0 hPa 0,0 l/m 1,6 km/h (1 Bft) S-SO 157 0 min 0,000 mm 0 W/m 1,8 C 4,4 C 6,4 km/h (2 Bft) 99 %
01.01.2014 22:40 4,4 C 4,3 C 4,4 C 84 % 1008,8 hPa 0,0 l/m 0,0 km/h (0 Bft) SO 135 0 min 0,000 mm 0 W/m 1,9 C 4,4 C 8,0 km/h (2 Bft) 100 %
01.01.2014 22:50 4,5 C 4,4 C 4,6 C 83 % 1008,8 hPa 0,0 l/m 0,0 km/h (0 Bft) W-SW 247 0 min 0,000 mm 0 W/m 1,9 C 4,5 C 1,6 km/h (1 Bft) 100 %
01.01.2014 23:00 4,3 C 4,3 C 4,5 C 83 % 1008,6 hPa 0,0 l/m 0,0 km/h (0 Bft) N 0 0 min 0,000 mm 0 W/m 1,7 C 4,3 C 0,0 km/h (0 Bft) 100 %
01.01.2014 23:10 3,9 C 3,9 C 4,3 C 84 % 1008,4 hPa 0,0 l/m 0,0 km/h (0 Bft) SW 225 0 min 0,000 mm 0 W/m 1,4 C 3,9 C 1,6 km/h (1 Bft) 100 %
01.01.2014 23:20 3,8 C 3,8 C 4,0 C 85 % 1008,3 hPa 0,0 l/m 0,0 km/h (0 Bft) SW 225 0 min 0,000 mm 0 W/m 1,5 C 3,8 C 1,6 km/h (1 Bft) 100 %
01.01.2014 23:30 3,6 C 3,6 C 3,8 C 85 % 1008,2 hPa 0,0 l/m 0,0 km/h (0 Bft) SW 225 0 min 0,000 mm 0 W/m 1,3 C 3,6 C 3,2 km/h (1 Bft) 100 %
01.01.2014 23:40 3,7 C 3,6 C 3,7 C 86 % 1008,0 hPa 0,0 l/m 0,0 km/h (0 Bft) SW 225 0 min 0,000 mm 0 W/m 1,6 C 3,7 C 3,2 km/h (1 Bft) 100 %
01.01.2014 23:50 3,5 C 3,5 C 3,7 C 85 % 1007,9 hPa 0,0 l/m 0,0 km/h (0 Bft) W 270 0 min 0,000 mm 0 W/m 1,2 C 3,5 C 3,2 km/h (1 Bft) 100 %
_ Min-Zeit 04:40 04:40 03:10 14:50 23:50 - 00:00 - - - - - 03:00 03:00 01:30 09:10
Minimum _ -1,1 C -1,1 C -1,0 C 77 % 1007,9 hPa - 0,0 km/h (0 Bft) - - - - - -2,6 C -1,0 C 0,0 km/h (0 Bft) 90 %
_ Max-Zeit 15:00 15:00 15:00 00:00 09:20 05:20 14:10 - - 10:10 13:00 11:30 14:40 15:00 22:10 00:40
Maximum _ 8,4 C 8,3 C 8,4 C 89 % 1016,2 hPa 0,2 l/m 4,8 km/h
S-SO (1 Bft)
- - 10 min 0,076 mm 350 W/m 4,8 C 8,4 C 16,1 km/h
S-SO (3 Bft)
100 %
Durchschnitt _ 3,1 C 3,0 C 3,1 C 85 % 1013,4 hPa #0,6 l/m 0,7 km/h (0 Bft) SO - #3:30 h #0,432 mm 136 W/m 0,7 C 3,1 C 4,2 km/h (1 Bft) 100 %
PRIVATE WETTERSTATION BILLIGHEIM-ALLFELD - www.neckar-odenwald-wetter.de - Holger Sonntag